Stations météo

réclame
Mon MeteoGroup
Leucate/Semaphore, France (7666): Température de l'air & dewpoint: 10.07.2018 12:00:00 - 16.07.2018 12:00:00 (CEST)Leucate/Semaphore, France (7666): Vitesse du vent & gusts: 10.07.2018 12:00:00 - 16.07.2018 12:00:00 (CEST)Leucate/Semaphore, France (7666): Direction du vent: 10.07.2018 12:00:00 - 16.07.2018 12:00:00 (CEST)Leucate/Semaphore, France (7666): reduced air pressure: 10.07.2018 12:00:00 - 16.07.2018 12:00:00 (CEST)Leucate/Semaphore, France (7666): visibility: 10.07.2018 12:00:00 - 16.07.2018 12:00:00 (CEST)Leucate/Semaphore, France (7666): Quantités de précipitations: 10.07.2018 12:00:00 - 16.07.2018 12:00:00 (CEST)
Date & Time tt [°C] td [°C] ff [km/h] ff [knt] fx [km/h] fx [knt] dd ppp [hPa] vv [km] rr [mm]
16.07.2018 12:00:00 - - - - - - - - - -
16.07.2018 11:00:00 18,3 16,6 29 15 71 38 NW 1011,9 - 8,5
16.07.2018 10:00:00 21,6 19,2 24 13 45 25 NW 1011,0 - 1,0
16.07.2018 09:00:00 23,8 17,8 25 14 48 26 NW 1010,0 - 0,0
16.07.2018 08:00:00 23,1 17,6 15 8 33 18 NW 1010,3 - 0,0
16.07.2018 07:00:00 22,7 17,6 11 6 20 11 WNW 1011,4 - 0,0
16.07.2018 06:00:00 22,4 19,2 7 4 17 9 N 1010,7 - 0,0
16.07.2018 05:00:00 22,1 18,7 12 7 23 12 NNW 1011,8 - 0,0
16.07.2018 04:00:00 22,5 20,2 12 7 21 12 N 1012,0 - 0,0
16.07.2018 03:00:00 23,3 21,9 9 5 16 9 N 1012,5 - 0,0
16.07.2018 02:00:00 22,8 20,7 9 5 24 13 N 1012,6 - 0,0
16.07.2018 01:00:00 23,6 22,4 9 5 18 10 N 1012,7 - 0,0
16.07.2018 00:00:00 23,7 22,0 4 2 11 6 NE 1012,4 - 0,0
15.07.2018 23:00:00 23,8 21,5 3 2 7 4 NE 1012,3 - 0,0
15.07.2018 22:00:00 24,0 21,5 4 2 8 4 ENE 1011,8 - 0,0
15.07.2018 21:00:00 24,4 21,7 4 2 10 5 ENE 1011,7 - 0,0
15.07.2018 20:00:00 25,1 21,6 4 2 8 4 ENE 1011,6 15 0,0
15.07.2018 19:00:00 25,6 21,5 4 2 10 5 ENE 1011,8 - 0,0
15.07.2018 18:00:00 25,5 21,6 9 5 17 9 SE 1012,3 20 0,0
15.07.2018 17:00:00 25,5 21,0 14 8 17 9 SE 1012,6 - 0,0
15.07.2018 16:00:00 26,1 20,2 8 4 13 7 E 1013,1 - 0,0
15.07.2018 15:00:00 26,0 20,1 8 5 18 10 E 1013,7 - 0,0
15.07.2018 14:00:00 26,9 19,5 7 4 17 9 ENE 1014,2 - 0,0
15.07.2018 13:00:00 26,2 18,1 8 4 13 7 ENE 1015,0 - 0,0
15.07.2018 12:00:00 26,4 16,3 6 3 10 6 ENE 1015,2 - 0,0
15.07.2018 11:00:00 26,4 17,2 6 3 9 5 E 1015,3 - 0,0
15.07.2018 10:00:00 25,1 15,1 5 3 8 4 SSE 1015,3 - 0,0
15.07.2018 09:00:00 25,1 15,4 3 2 10 5 SE 1015,1 - 0,0
15.07.2018 08:00:00 24,5 15,4 4 2 9 5 NW 1014,5 - 0,0
15.07.2018 07:00:00 22,2 15,8 7 4 16 9 N 1014,3 - 0,0
15.07.2018 06:00:00 22,7 15,0 7 4 28 15 N 1014,4 - 0,0
15.07.2018 05:00:00 23,6 14,9 16 9 50 27 NW 1014,1 25 0,0
15.07.2018 04:00:00 23,8 16,1 22 12 47 26 NW 1014,3 - 0,0
15.07.2018 03:00:00 21,8 17,8 10 5 14 8 NW 1014,0 - 0,0
15.07.2018 02:00:00 22,6 18,6 4 2 12 6 NNW 1014,2 - 0,0
15.07.2018 01:00:00 23,2 19,4 7 4 11 6 SSW 1014,4 - 0,0
15.07.2018 00:00:00 23,5 17,9 6 3 11 6 SW 1014,3 - 0,0
14.07.2018 23:00:00 24,4 17,4 8 4 13 7 S 1014,5 - 0,0
14.07.2018 22:00:00 24,6 16,3 10 5 19 10 S 1014,1 - 0,0
14.07.2018 21:00:00 25,4 15,4 13 7 19 10 S 1013,8 - 0,0
14.07.2018 20:00:00 25,7 16,5 11 6 18 10 S 1014,0 - 0,0
14.07.2018 19:00:00 26,1 15,8 14 8 19 10 S 1014,6 - 0,0
14.07.2018 18:00:00 24,9 19,7 9 5 15 8 S 1014,5 - 0,0
14.07.2018 17:00:00 25,8 19,9 9 5 14 8 SSE 1014,7 20 0,0
14.07.2018 16:00:00 26,1 20,2 11 6 16 9 SE 1015,0 - 0,0
14.07.2018 15:00:00 25,5 20,1 11 6 18 10 SSE 1015,3 - 0,0
14.07.2018 14:00:00 26,1 19,2 10 6 16 8 SE 1015,7 20 0,0
14.07.2018 13:00:00 26,5 18,4 13 7 19 10 SE 1016,2 - 0,0
14.07.2018 12:00:00 25,9 20,2 10 5 19 10 SSE 1016,3 - 0,0
14.07.2018 11:00:00 26,3 19,7 6 3 17 9 E 1016,4 - 0,0
14.07.2018 10:00:00 26,7 17,7 11 6 22 12 N 1016,3 - 0,0
14.07.2018 09:00:00 24,3 17,5 14 7 27 15 NNW 1016,2 - 0,0
14.07.2018 08:00:00 24,4 17,1 12 7 21 11 NNW 1015,9 20 0,0
14.07.2018 07:00:00 23,4 17,4 3 2 7 4 W 1015,7 - 0,0
14.07.2018 06:00:00 23,6 16,6 5 3 9 5 NW 1015,7 - 0,0
14.07.2018 05:00:00 23,8 16,8 8 4 13 7 NNW 1016,1 15 0,0
14.07.2018 04:00:00 24,0 16,8 8 4 23 12 NW 1016,3 - 0,0
14.07.2018 03:00:00 23,9 16,7 16 8 33 18 NNW 1016,5 - 0,0
14.07.2018 02:00:00 23,0 19,2 20 11 29 16 NNW 1016,8 - 0,0
14.07.2018 01:00:00 23,9 17,4 10 5 14 7 NW 1016,2 - 0,0
14.07.2018 00:00:00 24,1 19,4 4 2 11 6 S 1015,8 - 0,0
13.07.2018 23:00:00 24,2 18,2 11 6 14 8 S 1015,9 - 0,0
13.07.2018 22:00:00 24,6 16,6 5 3 22 12 S 1015,9 - 0,0
13.07.2018 21:00:00 25,5 13,7 14 7 29 16 S 1015,6 - 0,0
13.07.2018 20:00:00 25,4 14,8 22 12 29 16 S 1015,4 20 0,0
13.07.2018 19:00:00 25,8 13,3 18 10 23 13 S 1015,8 - 0,0
13.07.2018 18:00:00 26,1 14,5 12 6 21 12 S 1015,8 - 0,0
13.07.2018 17:00:00 25,3 13,5 14 8 21 11 S 1016,5 20 0,0
13.07.2018 16:00:00 26,7 17,7 14 7 19 10 SSE 1017,0 - 0,0
13.07.2018 15:00:00 26,7 17,2 11 6 16 8 SSE 1017,3 - 0,0
13.07.2018 14:00:00 25,9 18,6 9 5 14 8 SE 1017,5 20 0,0
13.07.2018 13:00:00 26,3 18,2 9 5 14 8 ESE 1017,8 - 0,0
13.07.2018 12:00:00 26,4 19,0 7 4 16 9 E 1017,7 - 0,0
13.07.2018 11:00:00 25,6 18,0 6 4 15 8 NNE 1017,5 - 0,0
13.07.2018 10:00:00 24,8 17,5 9 5 12 7 NNE 1017,2 - 0,0
13.07.2018 09:00:00 24,4 18,1 4 2 7 4 ESE 1017,3 - 0,0
13.07.2018 08:00:00 23,5 18,6 3 2 6 4 ESE 1017,0 20 0,0
13.07.2018 07:00:00 22,3 17,9 5 3 8 4 SE 1016,8 - 0,0
13.07.2018 06:00:00 22,6 16,8 3 2 13 7 S 1016,3 - 0,0
13.07.2018 05:00:00 22,6 15,2 9 5 13 7 NNW 1016,1 20 0,0
13.07.2018 04:00:00 22,9 14,7 7 4 14 7 N 1016,3 - 0,0
13.07.2018 03:00:00 23,2 16,7 4 2 17 9 SW 1016,5 - 0,0
13.07.2018 02:00:00 23,5 17,3 12 7 18 10 WSW 1016,4 - 0,0
13.07.2018 01:00:00 24,1 15,6 11 6 18 10 WNW 1016,5 - 0,0
13.07.2018 00:00:00 25,3 15,3 12 7 26 14 WNW 1016,2 - 0,0
12.07.2018 23:00:00 25,0 16,2 11 6 17 9 WNW 1016,1 - 0,0
12.07.2018 22:00:00 25,4 18,1 8 4 21 11 WSW 1015,4 - 0,0
12.07.2018 21:00:00 26,0 18,7 12 6 28 15 SW 1014,9 - 0,0
12.07.2018 20:00:00 27,1 17,0 16 8 31 17 SW 1014,7 18 0,0
12.07.2018 19:00:00 26,6 16,8 21 12 35 19 SSW 1014,6 - 0,0
12.07.2018 18:00:00 24,9 16,3 21 12 35 19 S 1015,4 - 0,0
12.07.2018 17:00:00 23,2 16,7 25 13 35 19 S 1015,3 18 0,0
12.07.2018 16:00:00 24,1 16,1 21 11 27 14 SSE 1015,2 - 0,0
12.07.2018 15:00:00 23,8 15,8 16 8 19 11 SSE 1015,1 - 0,0
12.07.2018 14:00:00 24,1 14,2 15 8 20 11 SE 1015,7 18 0,0
12.07.2018 13:00:00 23,9 14,0 16 9 18 10 SSE 1015,9 - 0,0
12.07.2018 12:00:00 23,8 13,3 13 7 15 8 SSE 1015,8 - 0,0
12.07.2018 11:00:00 24,4 16,6 10 5 13 7 S 1015,6 - 0,0
12.07.2018 10:00:00 23,0 16,3 8 4 11 6 SSE 1015,7 - 0,0
12.07.2018 09:00:00 23,4 14,1 8 4 13 7 ESE 1015,3 - 0,0
12.07.2018 08:00:00 22,5 15,3 11 6 13 7 SE 1015,0 - 0,0
12.07.2018 07:00:00 22,6 16,4 11 6 18 10 ESE 1014,5 - 0,0
12.07.2018 06:00:00 22,5 16,3 15 8 28 15 ESE 1014,2 - 0,0
12.07.2018 05:00:00 22,9 16,9 24 13 31 17 ESE 1013,8 22 0,0
12.07.2018 04:00:00 23,1 15,7 8 4 11 6 E 1013,6 - 0,0
12.07.2018 03:00:00 22,5 14,1 4 2 13 7 NNW 1013,4 - 0,0
12.07.2018 02:00:00 24,0 12,6 8 5 10 5 NW 1013,1 - 0,0
12.07.2018 01:00:00 25,3 11,5 9 5 16 9 W 1013,1 - 0,0
12.07.2018 00:00:00 26,3 11,2 10 5 19 11 WNW 1013,7 - 0,0
11.07.2018 23:00:00 26,5 11,4 10 6 27 15 WNW 1013,7 - 0,0
11.07.2018 22:00:00 27,4 11,0 16 9 28 15 NW 1013,1 - 0,0
11.07.2018 21:00:00 28,3 10,5 13 7 30 16 NW 1012,7 - 0,0
11.07.2018 20:00:00 29,6 11,2 16 8 51 27 NW 1012,0 - 0,0
11.07.2018 19:00:00 31,4 10,7 21 11 42 23 NW 1012,0 - 0,0
11.07.2018 18:00:00 32,1 10,7 21 11 49 27 NW 1011,6 - 0,0
11.07.2018 17:00:00 32,2 10,8 25 13 52 28 NW 1011,4 25 0,0
11.07.2018 16:00:00 32,0 10,7 27 14 60 33 NW 1011,8 - 0,0
11.07.2018 15:00:00 31,6 10,9 28 15 56 30 NW 1012,5 - 0,0
11.07.2018 14:00:00 30,7 11,6 29 16 57 31 NW 1012,9 - 0,0
11.07.2018 13:00:00 29,9 10,9 29 16 52 28 WNW 1013,3 - 0,0
11.07.2018 12:00:00 29,1 11,2 29 16 58 31 NW 1013,7 - 0,0
11.07.2018 11:00:00 28,4 13,1 23 12 52 28 NW 1013,6 25 0,0
11.07.2018 10:00:00 27,3 13,3 22 12 48 26 NW 1014,2 - 0,0
11.07.2018 09:00:00 25,9 13,7 16 9 29 16 NW 1014,3 - 0,0
11.07.2018 08:00:00 23,3 14,6 15 8 29 15 NNW 1014,3 25 0,0
11.07.2018 07:00:00 22,5 13,6 19 10 34 18 NNW 1014,0 - 0,0
11.07.2018 06:00:00 22,7 13,5 17 9 27 15 NNW 1014,0 - 0,0
11.07.2018 05:00:00 23,1 13,3 16 9 31 17 W 1013,6 25 0,0
11.07.2018 04:00:00 23,7 13,3 17 9 33 18 NW 1013,8 - 0,0
11.07.2018 03:00:00 24,5 13,4 13 7 24 13 NW 1014,2 - 0,0
11.07.2018 02:00:00 24,8 13,4 9 5 40 21 W 1014,6 - 0,0
11.07.2018 01:00:00 25,2 13,1 20 11 36 20 WNW 1014,2 - 0,0
11.07.2018 00:00:00 26,2 13,0 21 11 39 21 NW 1014,3 - 0,0
10.07.2018 23:00:00 26,9 12,5 14 8 35 19 NW 1014,3 - 0,0
10.07.2018 22:00:00 27,7 12,9 15 8 36 20 NW 1013,7 - 0,0
10.07.2018 21:00:00 29,3 13,5 15 8 46 25 NW 1013,4 - 0,0
10.07.2018 20:00:00 31,1 12,9 22 12 58 31 NW 1013,2 - 0,0
10.07.2018 19:00:00 30,6 12,9 26 14 64 35 NW 1012,8 - 0,0
10.07.2018 18:00:00 32,3 12,0 29 15 51 27 NW 1013,1 - 0,0
10.07.2018 17:00:00 32,8 12,4 26 14 56 30 NW 1013,3 - 0,0
10.07.2018 16:00:00 32,6 12,8 31 17 54 29 NW 1013,6 - 0,0
10.07.2018 15:00:00 32,4 13,6 26 14 54 29 NW 1013,9 - 0,0
10.07.2018 14:00:00 31,7 13,9 26 14 55 30 NW 1014,3 - 0,0
10.07.2018 13:00:00 31,0 12,8 27 14 51 27 NW 1014,9 - 0,0
10.07.2018 12:00:00 30,1 13,0 27 15 54 29 NW 1015,4 - 0,0

tt = Température de l'air
td = dewpoint
ff = Vitesse du vent
fx = gusts
dd = Direction du vent
ppp = reduced air pressure
vv = visibility
rr = Quantités de précipitations

stations d'obs. à proximité